SL-16 DEB, 39865

Orbit data source: Space-Track

SL-16 DEB, 39865 is space debris in LEO originally from a launch on Fri, 25 Dec 1992 UTC launched from the Tyuratam Missile And Space Complex (TTMTR). Debris objects in space refer to the collection of defunct objects orbiting the Earth. Examples of debris include non-operational satellites, rocket bodies, and fragments generated from explosions, collisions, or faulty payload assembly.

Loading next visibility...
Identifier
39865, 1992-093LT
Orbit
LEO
Country
Flag of CISCIS
Related business
Manufacturer
Unknown
Mission
Spacecraft
Bus & Motor
Unknown
Mass
Unknown
Launch date (UTC)
1992-12-25 (33 years ago)
Launch vehicle
Unknown
Launch site
Tyuratam Missile And Space Complex (TTMTR)
Object type
Payload
Rocket body
Debris
Shape & HBR
Unknown shape, 0.1 m
Radar Cross Section
Small (<0.1 m²)

Expand to show TLE details & history
Last TLE update: 12 hours ago

TLE from 12 hours ago
0 SL-16 DEB
1 39865U 92093LT  25307.95397566  .00001721  00000-0  58301-3 0  9992
2 39865  71.0151 189.6094 0007196 306.4746  53.5725 14.38158306596835
Epoch: 2025-11-03T22:53Z
TLE epoch observation values (Epoch: 2025-11-03T22:53:43.497Z)
Latitude
-0.00002°
Longitude
162.73021°
Altitude
763.967 km
Speed
7.474 km/s
True Right ascension
12h 38m 26s
True Declination
0° 00' 00"
Sunlit
Object was in daylight at epoch
Visualization orbit readout
Latitude
Unknown
Longitude
Unknown
Altitude
Unknown
Speed
Unknown
Apparent Right ascension
Unknown
Apparent Declination
Unknown
Sunlit
N/A
Visualization observer readout
Local Sidereal Time
06:19:50
Azimuth
Unknown
Elevation
Unknown
Doppler factor
Unknown
Orbital elements
Apogee altitude
767.629 km
Perigee altitude
757.352 km
Semi-major axis
7,140.628 km
Eccentricity
0.00072
Inclination
71.0151°
RAAN
189.6094°
Arg. of periapsis
306.4746°
True anomaly
53.63888°
Mean anomaly
53.5725°
Eccentric anomaly
53.60569°
Mean motion
3.59698 °/min
Orbital period
100.08 mins
BSTAR
0.00058301
Loading maneuver chart data...
Computing Atmospheric mass density...

Documentation

Showing up to 5 results
|